Weather History for Graham, TX

Change the Weather History Date:

Saturday, December 7, 2013

  Actual Average (KMWL) Record (KMWL)
Temperature  
Mean Temperature 18 °F -  
Max Temperature 21 °F 57 °F 82 °F (2007)
Min Temperature 14 °F 36 °F 16 °F (2013)
Degree Days  
Heating Degree Days 48    
Moisture  
Dew Point 10 °F    
Average Humidity 69    
Maximum Humidity 74    
Minimum Humidity 62    
Precipitation  
Precipitation 0.00 in - - ()
Sea Level Pressure  
Sea Level Pressure 30.42 in    
Wind  
Wind Speed 7 mph (North)    
Max Wind Speed 13 mph    
Max Gust Speed 18 mph    
Visibility 10 miles    
Events Snow    
Averages and records for this station are not official NWS values.
T = Trace of Precipitation, MM = Missing Value Source: NWS Daily Summary

Daily Weather History Graph

Daily Weather History Graph

Search for Another Location

Airport:

Trip Planner

Search our weather history database for the weather conditions in past years. The results will help you decide how hot, cold, wet, or windy it might be!

Date:

Astronomy

Dec. 07, 2013 Rise Set
Actual Time 7:24 AM CST 5:27 PM CST
Civil Twilight 6:57 AM CST 5:54 PM CST
Nautical Twilight 6:26 AM CST 6:25 PM CST
Astronomical Twilight 5:56 AM CST 6:55 PM CST
Moon 11:21 AM CST (12/7) 10:58 PM CST (12/7)
Length of Visible Light 10h 57m
Length of Day
10h 02m
Waxing Crescent, 29% of the Moon is Illuminated
Dec 7
Waxing Crescent
Dec 9
First Quarter
Dec 17
Full
Dec 25
Last Quarter
Jan 1
New

Hourly Weather History & Observations

Time (CST) Temp. Windchill Dew Point Humidity Pressure Visibility Wind Dir Wind Speed Gust Speed Precip Events Conditions
12:15 AM 19.0 °F 11.1 °F 10.4 °F 69% 30.51 in 10.0 mi North 5.8 mph - N/A   Clear
12:35 AM 18.5 °F 9.3 °F 10.2 °F 70% 30.51 in 10.0 mi North 6.9 mph - N/A   Clear
12:55 AM 18.5 °F 8.4 °F 10.4 °F 71% 30.51 in 10.0 mi North 8.1 mph - N/A   Clear
1:15 AM 18.3 °F 9.1 °F 10.4 °F 71% 30.51 in 10.0 mi North 6.9 mph - N/A   Clear
1:35 AM 18.0 °F 9.8 °F 10.2 °F 72% 30.51 in 10.0 mi North 5.8 mph - N/A   Clear
1:55 AM 17.6 °F 7.3 °F 9.5 °F 71% 30.51 in 10.0 mi North 8.1 mph - N/A   Clear
2:15 AM 17.8 °F 9.6 °F 9.0 °F 68% 30.52 in 10.0 mi North 5.8 mph - N/A   Clear
2:35 AM 17.6 °F 7.3 °F 9.5 °F 71% 30.51 in 10.0 mi North 8.1 mph - N/A   Clear
2:55 AM 17.2 °F 6.8 °F 9.5 °F 72% 30.51 in 10.0 mi North 8.1 mph - N/A   Clear
3:15 AM 16.7 °F 6.2 °F 9.0 °F 72% 30.50 in 10.0 mi North 8.1 mph - N/A   Clear
3:35 AM 16.7 °F 6.2 °F 8.4 °F 70% 30.50 in 10.0 mi North 8.1 mph - N/A   Clear
3:55 AM 16.3 °F 5.7 °F 8.1 °F 70% 30.50 in 10.0 mi North 8.1 mph - N/A   Clear
4:15 AM 15.8 °F 3.4 °F 7.7 °F 70% 30.50 in 10.0 mi North 10.4 mph - N/A   Clear
4:35 AM 15.8 °F 4.2 °F 7.2 °F 69% 30.50 in 10.0 mi North 9.2 mph - N/A   Clear
4:55 AM 15.8 °F 2.7 °F 7.0 °F 68% 30.50 in 10.0 mi North 11.5 mph - N/A   Clear
5:15 AM 15.6 °F 3.2 °F 6.6 °F 68% 30.48 in 10.0 mi NNE 10.4 mph 18.4 mph N/A   Clear
5:35 AM 15.6 °F 3.2 °F 6.3 °F 67% 30.50 in 10.0 mi North 10.4 mph 17.3 mph N/A   Clear
5:55 AM 15.3 °F 2.8 °F 6.1 °F 67% 30.51 in 10.0 mi North 10.4 mph - N/A   Clear
6:15 AM 15.1 °F 2.5 °F 6.3 °F 68% 30.52 in 10.0 mi North 10.4 mph - N/A   Clear
6:35 AM 14.9 °F 6.1 °F 5.9 °F 68% 30.53 in 10.0 mi North 5.8 mph - N/A   Clear
6:55 AM 14.9 °F 5.0 °F 6.3 °F 69% 30.54 in 10.0 mi North 6.9 mph - N/A   Clear
7:15 AM 14.7 °F 3.8 °F 6.8 °F 71% 30.53 in 10.0 mi North 8.1 mph - N/A   Clear
7:35 AM 14.7 °F 1.4 °F 6.8 °F 71% 30.52 in 10.0 mi North 11.5 mph - N/A   Clear
7:55 AM 14.9 °F 4.0 °F 6.6 °F 70% 30.53 in 10.0 mi North 8.1 mph - N/A   Clear
8:15 AM 14.9 °F 0.9 °F 6.8 °F 70% 30.52 in 10.0 mi North 12.7 mph - N/A   Clear
8:35 AM 15.4 °F 2.3 °F 6.8 °F 69% 30.52 in 10.0 mi North 11.5 mph - N/A   Clear
8:55 AM 16.3 °F 7.8 °F 6.6 °F 66% 30.53 in 10.0 mi NNE 5.8 mph - N/A   Clear
9:15 AM 16.5 °F 6.0 °F 5.9 °F 63% 30.54 in 10.0 mi North 8.1 mph - N/A   Scattered Clouds
9:35 AM 16.7 °F 5.3 °F 6.6 °F 65% 30.51 in 10.0 mi NNE 9.2 mph - N/A   Mostly Cloudy
9:55 AM 17.4 °F 6.2 °F 7.2 °F 64% 30.53 in 10.0 mi North 9.2 mph - N/A   Overcast
10:15 AM 18.0 °F 8.7 °F 7.5 °F 64% 30.53 in 10.0 mi North 6.9 mph - N/A   Overcast
10:35 AM 18.1 °F 7.9 °F 7.7 °F 64% 30.52 in 10.0 mi North 8.1 mph - N/A   Overcast
10:55 AM 18.3 °F 8.2 °F 8.2 °F 65% 30.51 in 10.0 mi NNW 8.1 mph - N/A   Overcast
11:15 AM 19.4 °F 10.4 °F 8.2 °F 62% 30.52 in 10.0 mi NNW 6.9 mph - N/A   Overcast
11:35 AM 19.8 °F 10.8 °F 8.8 °F 62% 30.51 in 7.0 mi NW 6.9 mph - N/A Snow Light Snow
11:55 AM 20.3 °F 12.5 °F 9.3 °F 63% 30.50 in 10.0 mi NW 5.8 mph - N/A   Overcast
12:15 PM 20.3 °F 11.5 °F 9.3 °F 63% 30.49 in 10.0 mi WNW 6.9 mph - N/A   Overcast
12:35 PM 20.1 °F 10.3 °F 9.5 °F 63% 30.47 in 10.0 mi NNW 8.1 mph - N/A   Overcast
12:55 PM 20.3 °F 12.5 °F 9.9 °F 64% 30.45 in 10.0 mi NNW 5.8 mph - N/A   Overcast
1:15 PM 20.1 °F 10.3 °F 10.2 °F 66% 30.44 in 10.0 mi NW 8.1 mph - N/A   Overcast
1:35 PM 20.3 °F 10.6 °F 10.4 °F 66% 30.42 in 10.0 mi NNW 8.1 mph - N/A   Overcast
1:55 PM 20.7 °F 13.0 °F 10.9 °F 66% 30.40 in 10.0 mi NNW 5.8 mph - N/A   Overcast
2:15 PM 20.7 °F 10.2 °F 11.1 °F 67% 30.39 in 10.0 mi North 9.2 mph - N/A   Overcast
2:35 PM 20.3 °F 9.8 °F 11.1 °F 68% 30.37 in 10.0 mi North 9.2 mph - N/A   Overcast
2:55 PM 20.3 °F 10.6 °F 11.3 °F 68% 30.35 in 10.0 mi NNW 8.1 mph - N/A   Overcast
3:15 PM 20.3 °F 9.8 °F 11.3 °F 68% 30.34 in 10.0 mi North 9.2 mph - N/A   Overcast
3:35 PM 20.7 °F 11.0 °F 11.8 °F 69% 30.34 in 10.0 mi NNW 8.1 mph - N/A   Overcast
3:55 PM 20.7 °F 11.0 °F 11.7 °F 68% 30.33 in 10.0 mi North 8.1 mph - N/A   Overcast
4:15 PM 20.3 °F 10.6 °F 11.5 °F 69% 30.33 in 10.0 mi NNW 8.1 mph - N/A   Overcast
4:35 PM 20.3 °F 9.8 °F 11.8 °F 70% 30.34 in 10.0 mi NNW 9.2 mph - N/A   Overcast
4:55 PM 20.7 °F 11.0 °F 12.4 °F 70% 30.33 in 10.0 mi North 8.1 mph - N/A   Overcast
5:15 PM 20.7 °F 10.2 °F 12.2 °F 70% 30.33 in 10.0 mi NNW 9.2 mph - N/A   Overcast
5:35 PM 20.7 °F 10.2 °F 12.2 °F 70% 30.33 in 10.0 mi North 9.2 mph - N/A   Overcast
5:55 PM 20.3 °F 13.8 °F 12.2 °F 71% 30.33 in 10.0 mi North 4.6 mph - N/A   Overcast
6:15 PM 20.3 °F 12.5 °F 12.4 °F 71% 30.33 in 10.0 mi North 5.8 mph - N/A   Overcast
6:35 PM 20.5 °F 12.8 °F 12.4 °F 71% 30.33 in 10.0 mi North 5.8 mph - N/A   Overcast
6:55 PM 20.7 °F 11.9 °F 13.1 °F 73% 30.32 in 10.0 mi North 6.9 mph - N/A   Overcast
7:15 PM 20.7 °F 11.9 °F 13.1 °F 73% 30.31 in 10.0 mi North 6.9 mph - N/A   Overcast
7:35 PM 20.7 °F 15.8 °F 12.7 °F 71% 30.31 in 10.0 mi North 3.5 mph - N/A   Overcast
7:55 PM 20.8 °F 16.0 °F 13.1 °F 72% 30.31 in 10.0 mi North 3.5 mph - N/A   Overcast
8:15 PM 21.0 °F - 13.1 °F 71% 30.31 in 10.0 mi Calm Calm - N/A   Overcast
8:35 PM 21.2 °F - 13.3 °F 72% 30.32 in 10.0 mi Calm Calm - N/A   Overcast
8:55 PM 21.0 °F - 13.3 °F 72% 30.31 in 10.0 mi Calm Calm - N/A   Overcast
9:15 PM 21.2 °F - 13.6 °F 73% 30.31 in 10.0 mi Calm Calm - N/A   Overcast
9:35 PM 21.2 °F - 13.5 °F 72% 30.30 in 10.0 mi Calm Calm - N/A   Overcast
9:55 PM 21.2 °F - 13.8 °F 73% 30.30 in 10.0 mi Calm Calm - N/A   Overcast
10:15 PM 21.6 °F - 14.0 °F 73% 30.28 in 10.0 mi Calm Calm - N/A   Overcast
10:35 PM 21.6 °F - 13.8 °F 72% 30.27 in 10.0 mi Calm Calm - N/A   Overcast
10:55 PM 21.6 °F - 14.2 °F 73% 30.25 in 10.0 mi Calm Calm - N/A   Overcast
11:15 PM 21.7 °F - 14.5 °F 74% 30.26 in 10.0 mi Calm Calm - N/A   Overcast
11:35 PM 21.7 °F - 14.7 °F 74% 30.24 in 10.0 mi Calm Calm - N/A   Overcast
11:55 PM 21.7 °F - 14.7 °F 74% 30.24 in 10.0 mi Calm Calm - N/A   Overcast